{"data":{"norad_id":66840,"epoch":"2026-09-20T05:28:30.770688Z","epoch_age_seconds":107253,"freshness":"FRESH","line1":"1 66840U 25280V   26263.22813392  .00007333  00000+0  62167-3 0  9990","line2":"2 66840  70.0003 204.0448 0003154 263.7036  96.3763 14.98334160 45213","mean_motion":14.9833416,"eccentricity":0.0003154,"inclination_deg":70.0003,"raan_deg":204.0448,"arg_perigee_deg":263.7036,"mean_anomaly_deg":96.3763,"bstar":0.00062167,"rev_number":4521,"period_min":96.106732292615,"perigee_km":569.85093973698,"apogee_km":574.2351132977,"semimajor_km":6950.1800265173,"source":"CELESTRAK","updated_at":"2026-09-21T09:00:36.023473Z"}}